Information on these data can be found in provided Readme document
Contact Info: Zachary Fasnacht (zachary.fasnacht@ssaihq.com); Nickolay Krotkov (nickolay.a.krotkov@nasa.gov); Lok Lamsal (lok.lamsal@nasa.gov)

FillValue: -999.
ScaleFactor: 1e15
Units: molecules/cm^2

Date(yyyy-mm-dd),City,Country,LonCenter,LatCenter,BoundingCoordinates,Median,Q1,Q3,Mean,Baseline_Median,Baseline_Q1,Baseline_Q3,Baseline_Mean,NumGoodSamples,NumTotalSamples
2015-01-01,Dushanbe,Tajikistan,68.787,38.5598,[68.287 38.0598 69.287 39.0598],1.066,0.283,2.082,1.361,1.014,0.298,2.168,1.352,151.0,583.0
2015-01-02,Dushanbe,Tajikistan,68.787,38.5598,[68.287 38.0598 69.287 39.0598],1.066,0.283,2.082,1.356,1.03,0.294,2.134,1.344,152.0,582.0
2015-01-03,Dushanbe,Tajikistan,68.787,38.5598,[68.287 38.0598 69.287 39.0598],1.066,0.257,2.082,1.35,1.051,0.288,2.177,1.373,133.0,586.0
2015-01-04,Dushanbe,Tajikistan,68.787,38.5598,[68.287 38.0598 69.287 39.0598],1.066,0.257,2.082,1.341,0.984,0.252,2.059,1.297,135.0,571.0
2015-01-05,Dushanbe,Tajikistan,68.787,38.5598,[68.287 38.0598 69.287 39.0598],0.911,0.243,1.752,1.255,0.973,0.282,2.079,1.329,113.0,579.0
2015-01-06,Dushanbe,Tajikistan,68.787,38.5598,[68.287 38.0598 69.287 39.0598],0.637,0.196,1.618,1.128,0.817,0.243,1.939,1.233,124.0,567.0
2015-01-07,Dushanbe,Tajikistan,68.787,38.5598,[68.287 38.0598 69.287 39.0598],0.531,0.196,1.606,1.121,0.842,0.247,1.965,1.274,103.0,568.0
2015-01-08,Dushanbe,Tajikistan,68.787,38.5598,[68.287 38.0598 69.287 39.0598],0.757,0.212,1.576,1.068,0.811,0.239,1.924,1.208,100.0,571.0
2015-01-09,Dushanbe,Tajikistan,68.787,38.5598,[68.287 38.0598 69.287 39.0598],0.763,0.212,1.606,1.108,0.746,0.222,1.885,1.176,130.0,573.0
2015-01-10,Dushanbe,Tajikistan,68.787,38.5598,[68.287 38.0598 69.287 39.0598],0.766,0.229,1.606,1.115,0.741,0.242,1.873,1.169,123.0,541.0
2015-01-11,Dushanbe,Tajikistan,68.787,38.5598,[68.287 38.0598 69.287 39.0598],0.766,0.229,1.606,1.115,0.776,0.234,1.957,1.191,123.0,533.0
2015-01-12,Dushanbe,Tajikistan,68.787,38.5598,[68.287 38.0598 69.287 39.0598],0.954,0.236,1.618,1.173,0.848,0.242,1.993,1.233,114.0,535.0
2015-01-13,Dushanbe,Tajikistan,68.787,38.5598,[68.287 38.0598 69.287 39.0598],0.954,0.236,1.618,1.173,0.87,0.246,1.944,1.229,114.0,524.0
2015-01-14,Dushanbe,Tajikistan,68.787,38.5598,[68.287 38.0598 69.287 39.0598],0.905,0.22,1.52,0.981,0.917,0.274,2.052,1.252,83.0,530.0
2015-01-15,Dushanbe,Tajikistan,68.787,38.5598,[68.287 38.0598 69.287 39.0598],0.766,0.195,1.432,0.916,0.868,0.255,1.992,1.223,93.0,525.0
2015-01-16,Dushanbe,Tajikistan,68.787,38.5598,[68.287 38.0598 69.287 39.0598],0.272,0.183,1.432,0.889,0.854,0.276,2.023,1.256,79.0,524.0
2015-01-17,Dushanbe,Tajikistan,68.787,38.5598,[68.287 38.0598 69.287 39.0598],0.272,0.187,1.432,0.897,0.839,0.283,1.96,1.261,78.0,534.0
2015-01-18,Dushanbe,Tajikistan,68.787,38.5598,[68.287 38.0598 69.287 39.0598],0.272,0.151,1.432,0.845,0.783,0.272,1.873,1.219,90.0,538.0
2015-01-19,Dushanbe,Tajikistan,68.787,38.5598,[68.287 38.0598 69.287 39.0598],0.272,0.182,1.432,0.855,0.783,0.277,1.857,1.213,88.0,544.0
2015-01-20,Dushanbe,Tajikistan,68.787,38.5598,[68.287 38.0598 69.287 39.0598],0.272,0.143,1.432,0.818,0.72,0.231,1.687,1.127,97.0,530.0
2015-01-21,Dushanbe,Tajikistan,68.787,38.5598,[68.287 38.0598 69.287 39.0598],0.667,0.143,1.488,0.958,0.732,0.241,1.689,1.132,86.0,538.0
2015-01-22,Dushanbe,Tajikistan,68.787,38.5598,[68.287 38.0598 69.287 39.0598],0.33,0.123,1.365,0.784,0.658,0.236,1.647,1.064,102.0,526.0
2015-01-23,Dushanbe,Tajikistan,68.787,38.5598,[68.287 38.0598 69.287 39.0598],0.248,0.089,0.44,0.558,0.667,0.209,1.5,1.023,77.0,526.0
2015-01-24,Dushanbe,Tajikistan,68.787,38.5598,[68.287 38.0598 69.287 39.0598],0.242,0.061,0.4,0.252,0.668,0.219,1.476,0.988,59.0,531.0
2015-01-25,Dushanbe,Tajikistan,68.787,38.5598,[68.287 38.0598 69.287 39.0598],0.254,0.085,0.4,0.266,0.708,0.27,1.46,1.029,68.0,571.0
2015-01-26,Dushanbe,Tajikistan,68.787,38.5598,[68.287 38.0598 69.287 39.0598],0.254,0.086,0.4,0.264,0.712,0.248,1.396,0.975,76.0,580.0
2015-01-27,Dushanbe,Tajikistan,68.787,38.5598,[68.287 38.0598 69.287 39.0598],0.273,0.089,0.422,0.456,0.616,0.22,1.302,0.951,91.0,575.0
2015-01-28,Dushanbe,Tajikistan,68.787,38.5598,[68.287 38.0598 69.287 39.0598],0.273,0.089,0.422,0.456,0.727,0.263,1.393,0.968,91.0,577.0
2015-01-29,Dushanbe,Tajikistan,68.787,38.5598,[68.287 38.0598 69.287 39.0598],0.36,0.146,0.54,0.646,0.643,0.212,1.24,0.895,117.0,567.0
2015-01-30,Dushanbe,Tajikistan,68.787,38.5598,[68.287 38.0598 69.287 39.0598],0.4,0.17,0.6,0.678,0.67,0.241,1.289,0.936,107.0,571.0
2015-01-31,Dushanbe,Tajikistan,68.787,38.5598,[68.287 38.0598 69.287 39.0598],0.387,0.17,0.54,0.662,0.614,0.237,1.15,0.862,112.0,568.0
2015-02-01,Dushanbe,Tajikistan,68.787,38.5598,[68.287 38.0598 69.287 39.0598],0.387,0.17,0.54,0.662,0.661,0.259,1.208,0.894,112.0,569.0
2015-02-02,Dushanbe,Tajikistan,68.787,38.5598,[68.287 38.0598 69.287 39.0598],0.4,0.17,0.6,0.684,0.668,0.254,1.244,0.914,105.0,579.0
2015-02-03,Dushanbe,Tajikistan,68.787,38.5598,[68.287 38.0598 69.287 39.0598],0.4,0.176,0.629,0.704,0.667,0.268,1.253,0.927,122.0,583.0
2015-02-04,Dushanbe,Tajikistan,68.787,38.5598,[68.287 38.0598 69.287 39.0598],0.4,0.199,0.629,0.72,0.689,0.291,1.289,0.945,113.0,590.0
2015-02-05,Dushanbe,Tajikistan,68.787,38.5598,[68.287 38.0598 69.287 39.0598],0.4,0.193,0.629,0.702,0.651,0.245,1.257,0.924,119.0,577.0
2015-02-06,Dushanbe,Tajikistan,68.787,38.5598,[68.287 38.0598 69.287 39.0598],0.415,0.254,0.664,0.802,0.662,0.251,1.315,0.953,103.0,587.0
2015-02-07,Dushanbe,Tajikistan,68.787,38.5598,[68.287 38.0598 69.287 39.0598],0.484,0.274,1.705,1.022,0.71,0.303,1.561,1.032,123.0,574.0
2015-02-08,Dushanbe,Tajikistan,68.787,38.5598,[68.287 38.0598 69.287 39.0598],0.519,0.343,1.826,1.141,0.717,0.277,1.598,1.043,111.0,573.0
2015-02-09,Dushanbe,Tajikistan,68.787,38.5598,[68.287 38.0598 69.287 39.0598],0.519,0.321,1.826,1.144,0.549,0.242,1.532,1.01,105.0,577.0
2015-02-10,Dushanbe,Tajikistan,68.787,38.5598,[68.287 38.0598 69.287 39.0598],0.54,0.321,1.83,1.173,0.584,0.25,1.572,1.056,105.0,577.0
2015-02-11,Dushanbe,Tajikistan,68.787,38.5598,[68.287 38.0598 69.287 39.0598],0.533,0.321,1.826,1.109,0.622,0.264,1.64,1.098,90.0,545.0
2015-02-12,Dushanbe,Tajikistan,68.787,38.5598,[68.287 38.0598 69.287 39.0598],0.533,0.321,1.826,1.128,0.575,0.261,1.584,1.067,99.0,539.0
2015-02-13,Dushanbe,Tajikistan,68.787,38.5598,[68.287 38.0598 69.287 39.0598],0.533,0.247,1.826,1.18,0.589,0.244,1.57,1.106,73.0,541.0
2015-02-14,Dushanbe,Tajikistan,68.787,38.5598,[68.287 38.0598 69.287 39.0598],0.496,0.247,1.826,1.156,0.575,0.235,1.559,1.078,75.0,532.0
2015-02-15,Dushanbe,Tajikistan,68.787,38.5598,[68.287 38.0598 69.287 39.0598],0.603,0.272,2.071,1.228,0.604,0.219,1.64,1.093,70.0,534.0
2015-02-16,Dushanbe,Tajikistan,68.787,38.5598,[68.287 38.0598 69.287 39.0598],0.603,0.272,2.071,1.228,0.552,0.182,1.527,1.039,70.0,528.0
2015-02-17,Dushanbe,Tajikistan,68.787,38.5598,[68.287 38.0598 69.287 39.0598],0.603,0.286,2.071,1.256,0.567,0.219,1.445,1.031,65.0,528.0
2015-02-18,Dushanbe,Tajikistan,68.787,38.5598,[68.287 38.0598 69.287 39.0598],0.62,0.286,2.107,1.311,0.573,0.227,1.384,1.024,49.0,535.0
2015-02-19,Dushanbe,Tajikistan,68.787,38.5598,[68.287 38.0598 69.287 39.0598],0.62,0.272,2.107,1.296,0.644,0.245,1.604,1.07,51.0,537.0
2015-02-20,Dushanbe,Tajikistan,68.787,38.5598,[68.287 38.0598 69.287 39.0598],1.361,0.323,2.216,1.415,0.77,0.261,1.599,1.104,45.0,541.0
2015-02-21,Dushanbe,Tajikistan,68.787,38.5598,[68.287 38.0598 69.287 39.0598],0.598,0.247,2.107,1.254,0.746,0.28,1.574,1.112,52.0,527.0
2015-02-22,Dushanbe,Tajikistan,68.787,38.5598,[68.287 38.0598 69.287 39.0598],0.247,0.178,0.409,0.546,0.742,0.286,1.422,1.062,32.0,538.0
2015-02-23,Dushanbe,Tajikistan,68.787,38.5598,[68.287 38.0598 69.287 39.0598],0.255,0.199,0.598,0.544,0.726,0.32,1.486,1.077,43.0,526.0
2015-02-24,Dushanbe,Tajikistan,68.787,38.5598,[68.287 38.0598 69.287 39.0598],0.258,0.191,0.619,0.57,0.686,0.271,1.44,1.039,40.0,526.0
2015-02-25,Dushanbe,Tajikistan,68.787,38.5598,[68.287 38.0598 69.287 39.0598],0.378,0.205,0.62,0.586,0.688,0.274,1.455,1.009,35.0,531.0
2015-02-26,Dushanbe,Tajikistan,68.787,38.5598,[68.287 38.0598 69.287 39.0598],0.449,0.209,1.293,0.937,0.719,0.324,1.315,0.986,62.0,571.0
2015-02-27,Dushanbe,Tajikistan,68.787,38.5598,[68.287 38.0598 69.287 39.0598],0.4,0.209,1.293,0.868,0.722,0.331,1.359,1.002,53.0,576.0
2015-02-28,Dushanbe,Tajikistan,68.787,38.5598,[68.287 38.0598 69.287 39.0598],0.392,0.178,1.138,0.799,0.765,0.344,1.417,1.02,58.0,570.0
2015-03-01,Dushanbe,Tajikistan,68.787,38.5598,[68.287 38.0598 69.287 39.0598],0.398,0.178,1.203,0.819,0.81,0.354,1.434,1.04,56.0,573.0
2015-03-02,Dushanbe,Tajikistan,68.787,38.5598,[68.287 38.0598 69.287 39.0598],0.398,0.183,0.692,0.779,0.767,0.385,1.35,1.024,61.0,564.0
2015-03-03,Dushanbe,Tajikistan,68.787,38.5598,[68.287 38.0598 69.287 39.0598],0.398,0.183,0.692,0.779,0.769,0.388,1.363,1.013,61.0,569.0
2015-03-04,Dushanbe,Tajikistan,68.787,38.5598,[68.287 38.0598 69.287 39.0598],0.4,0.214,0.692,0.692,0.823,0.385,1.328,0.999,76.0,564.0
2015-03-05,Dushanbe,Tajikistan,68.787,38.5598,[68.287 38.0598 69.287 39.0598],0.407,0.214,0.692,0.694,0.837,0.36,1.324,1.003,75.0,564.0
2015-03-06,Dushanbe,Tajikistan,68.787,38.5598,[68.287 38.0598 69.287 39.0598],0.318,0.115,0.578,0.505,0.706,0.329,1.289,0.93,92.0,573.0
2015-03-07,Dushanbe,Tajikistan,68.787,38.5598,[68.287 38.0598 69.287 39.0598],0.386,0.151,0.692,0.592,0.7,0.321,1.314,0.931,118.0,575.0
2015-03-08,Dushanbe,Tajikistan,68.787,38.5598,[68.287 38.0598 69.287 39.0598],0.398,0.151,0.692,0.619,0.662,0.301,1.262,0.88,111.0,580.0
2015-03-09,Dushanbe,Tajikistan,68.787,38.5598,[68.287 38.0598 69.287 39.0598],0.46,0.168,0.929,0.705,0.74,0.338,1.323,0.929,128.0,565.0
2015-03-10,Dushanbe,Tajikistan,68.787,38.5598,[68.287 38.0598 69.287 39.0598],0.449,0.148,1.032,0.733,0.756,0.324,1.525,0.985,117.0,575.0
2015-03-11,Dushanbe,Tajikistan,68.787,38.5598,[68.287 38.0598 69.287 39.0598],0.44,0.145,1.022,0.705,0.788,0.343,1.555,0.983,129.0,563.0
2015-03-12,Dushanbe,Tajikistan,68.787,38.5598,[68.287 38.0598 69.287 39.0598],0.426,0.125,1.022,0.712,0.768,0.302,1.572,0.986,126.0,565.0
2015-03-13,Dushanbe,Tajikistan,68.787,38.5598,[68.287 38.0598 69.287 39.0598],0.385,0.115,0.715,0.562,0.706,0.315,1.481,0.944,99.0,568.0
2015-03-14,Dushanbe,Tajikistan,68.787,38.5598,[68.287 38.0598 69.287 39.0598],0.385,0.11,0.777,0.62,0.844,0.271,1.487,0.978,115.0,572.0
2015-03-15,Dushanbe,Tajikistan,68.787,38.5598,[68.287 38.0598 69.287 39.0598],0.407,0.115,0.917,0.641,0.87,0.232,1.528,0.945,110.0,541.0
2015-03-16,Dushanbe,Tajikistan,68.787,38.5598,[68.287 38.0598 69.287 39.0598],0.498,0.115,1.028,0.749,0.886,0.239,1.518,0.98,128.0,535.0
2015-03-17,Dushanbe,Tajikistan,68.787,38.5598,[68.287 38.0598 69.287 39.0598],0.504,0.115,1.054,0.764,0.874,0.268,1.672,1.022,123.0,537.0
2015-03-18,Dushanbe,Tajikistan,68.787,38.5598,[68.287 38.0598 69.287 39.0598],0.551,0.225,1.183,0.819,0.878,0.298,1.738,1.051,146.0,529.0
2015-03-19,Dushanbe,Tajikistan,68.787,38.5598,[68.287 38.0598 69.287 39.0598],0.579,0.148,1.414,0.871,0.924,0.301,1.817,1.103,131.0,533.0
2015-03-20,Dushanbe,Tajikistan,68.787,38.5598,[68.287 38.0598 69.287 39.0598],0.579,0.148,1.411,0.865,0.93,0.309,1.812,1.106,133.0,530.0
2015-03-21,Dushanbe,Tajikistan,68.787,38.5598,[68.287 38.0598 69.287 39.0598],0.831,0.336,1.68,1.101,0.995,0.346,1.905,1.187,114.0,529.0
2015-03-22,Dushanbe,Tajikistan,68.787,38.5598,[68.287 38.0598 69.287 39.0598],0.713,0.301,1.68,1.045,1.002,0.353,1.923,1.191,93.0,539.0
2015-03-23,Dushanbe,Tajikistan,68.787,38.5598,[68.287 38.0598 69.287 39.0598],0.702,0.301,1.68,1.036,1.071,0.353,2.015,1.244,96.0,540.0
2015-03-24,Dushanbe,Tajikistan,68.787,38.5598,[68.287 38.0598 69.287 39.0598],0.63,0.301,1.653,0.991,1.102,0.346,1.984,1.24,79.0,542.0
2015-03-25,Dushanbe,Tajikistan,68.787,38.5598,[68.287 38.0598 69.287 39.0598],0.63,0.301,1.653,0.985,0.997,0.322,1.929,1.219,80.0,529.0
2015-03-26,Dushanbe,Tajikistan,68.787,38.5598,[68.287 38.0598 69.287 39.0598],0.754,0.377,1.68,1.105,1.036,0.362,1.97,1.276,68.0,538.0
2015-03-27,Dushanbe,Tajikistan,68.787,38.5598,[68.287 38.0598 69.287 39.0598],0.83,0.309,1.68,1.119,1.054,0.368,1.993,1.286,88.0,530.0
2015-03-28,Dushanbe,Tajikistan,68.787,38.5598,[68.287 38.0598 69.287 39.0598],0.83,0.309,1.68,1.119,1.106,0.388,1.912,1.282,88.0,535.0
2015-03-29,Dushanbe,Tajikistan,68.787,38.5598,[68.287 38.0598 69.287 39.0598],0.83,0.366,1.653,1.035,0.985,0.391,1.915,1.229,89.0,535.0
2015-03-30,Dushanbe,Tajikistan,68.787,38.5598,[68.287 38.0598 69.287 39.0598],0.806,0.275,1.651,0.988,0.953,0.411,1.819,1.185,102.0,574.0
2015-03-31,Dushanbe,Tajikistan,68.787,38.5598,[68.287 38.0598 69.287 39.0598],0.669,0.18,1.531,0.882,0.954,0.364,1.874,1.171,88.0,579.0
2015-04-01,Dushanbe,Tajikistan,68.787,38.5598,[68.287 38.0598 69.287 39.0598],0.796,0.272,1.6,0.985,1.024,0.389,1.938,1.239,108.0,573.0
2015-04-02,Dushanbe,Tajikistan,68.787,38.5598,[68.287 38.0598 69.287 39.0598],0.669,0.161,1.531,0.971,1.008,0.349,1.895,1.224,85.0,574.0
2015-04-03,Dushanbe,Tajikistan,68.787,38.5598,[68.287 38.0598 69.287 39.0598],0.609,0.161,1.468,0.934,0.914,0.3,1.84,1.167,95.0,566.0
2015-04-04,Dushanbe,Tajikistan,68.787,38.5598,[68.287 38.0598 69.287 39.0598],0.609,0.162,1.468,0.943,1.001,0.371,1.956,1.304,93.0,571.0
2015-04-05,Dushanbe,Tajikistan,68.787,38.5598,[68.287 38.0598 69.287 39.0598],0.64,0.272,1.531,0.966,0.985,0.374,1.953,1.273,120.0,565.0
2015-04-06,Dushanbe,Tajikistan,68.787,38.5598,[68.287 38.0598 69.287 39.0598],0.68,0.284,1.6,0.999,0.981,0.425,1.92,1.283,116.0,565.0
2015-04-07,Dushanbe,Tajikistan,68.787,38.5598,[68.287 38.0598 69.287 39.0598],0.687,0.284,1.6,1.005,1.117,0.446,2.075,1.387,113.0,575.0
2015-04-08,Dushanbe,Tajikistan,68.787,38.5598,[68.287 38.0598 69.287 39.0598],0.687,0.258,1.6,0.999,1.125,0.448,2.119,1.406,115.0,580.0
2015-04-09,Dushanbe,Tajikistan,68.787,38.5598,[68.287 38.0598 69.287 39.0598],0.687,0.258,1.6,1.003,1.151,0.46,2.086,1.402,114.0,581.0
2015-04-10,Dushanbe,Tajikistan,68.787,38.5598,[68.287 38.0598 69.287 39.0598],0.732,0.258,1.651,1.035,1.163,0.402,2.083,1.365,125.0,567.0
2015-04-11,Dushanbe,Tajikistan,68.787,38.5598,[68.287 38.0598 69.287 39.0598],0.669,0.292,1.651,1.009,1.17,0.388,2.091,1.369,105.0,569.0
2015-04-12,Dushanbe,Tajikistan,68.787,38.5598,[68.287 38.0598 69.287 39.0598],0.669,0.292,1.651,1.009,1.137,0.358,2.213,1.37,105.0,558.0
2015-04-13,Dushanbe,Tajikistan,68.787,38.5598,[68.287 38.0598 69.287 39.0598],0.657,0.294,1.668,1.053,1.163,0.374,2.217,1.396,88.0,563.0
2015-04-14,Dushanbe,Tajikistan,68.787,38.5598,[68.287 38.0598 69.287 39.0598],0.928,0.349,1.622,1.091,1.291,0.348,2.258,1.423,99.0,567.0
2015-04-15,Dushanbe,Tajikistan,68.787,38.5598,[68.287 38.0598 69.287 39.0598],0.928,0.355,1.622,1.128,1.181,0.347,2.227,1.389,122.0,570.0
2015-04-16,Dushanbe,Tajikistan,68.787,38.5598,[68.287 38.0598 69.287 39.0598],0.883,0.323,1.622,1.042,1.119,0.394,2.291,1.379,102.0,539.0
2015-04-17,Dushanbe,Tajikistan,68.787,38.5598,[68.287 38.0598 69.287 39.0598],1.07,0.382,1.789,1.198,1.149,0.377,2.295,1.409,128.0,535.0
2015-04-18,Dushanbe,Tajikistan,68.787,38.5598,[68.287 38.0598 69.287 39.0598],1.07,0.355,1.789,1.176,1.16,0.464,2.275,1.414,129.0,534.0
2015-04-19,Dushanbe,Tajikistan,68.787,38.5598,[68.287 38.0598 69.287 39.0598],0.996,0.355,1.771,1.148,1.186,0.446,2.091,1.33,134.0,525.0
2015-04-20,Dushanbe,Tajikistan,68.787,38.5598,[68.287 38.0598 69.287 39.0598],1.07,0.378,1.789,1.195,1.226,0.466,2.193,1.386,107.0,532.0
2015-04-21,Dushanbe,Tajikistan,68.787,38.5598,[68.287 38.0598 69.287 39.0598],1.168,0.519,1.924,1.377,1.201,0.391,2.225,1.411,141.0,528.0
2015-04-22,Dushanbe,Tajikistan,68.787,38.5598,[68.287 38.0598 69.287 39.0598],1.124,0.519,1.924,1.365,1.207,0.354,2.116,1.346,144.0,529.0
2015-04-23,Dushanbe,Tajikistan,68.787,38.5598,[68.287 38.0598 69.287 39.0598],1.124,0.519,1.924,1.368,1.104,0.324,2.093,1.31,144.0,541.0
2015-04-24,Dushanbe,Tajikistan,68.787,38.5598,[68.287 38.0598 69.287 39.0598],1.122,0.486,1.922,1.352,1.138,0.364,1.987,1.3,152.0,546.0
2015-04-25,Dushanbe,Tajikistan,68.787,38.5598,[68.287 38.0598 69.287 39.0598],1.122,0.521,1.922,1.367,1.213,0.404,1.969,1.335,155.0,553.0
2015-04-26,Dushanbe,Tajikistan,68.787,38.5598,[68.287 38.0598 69.287 39.0598],1.085,0.499,1.893,1.311,1.252,0.45,2.033,1.376,175.0,540.0
2015-04-27,Dushanbe,Tajikistan,68.787,38.5598,[68.287 38.0598 69.287 39.0598],1.085,0.499,1.893,1.311,1.364,0.488,2.105,1.449,175.0,545.0
2015-04-28,Dushanbe,Tajikistan,68.787,38.5598,[68.287 38.0598 69.287 39.0598],1.085,0.519,1.766,1.265,1.393,0.528,2.068,1.455,203.0,533.0
2015-04-29,Dushanbe,Tajikistan,68.787,38.5598,[68.287 38.0598 69.287 39.0598],1.124,0.572,1.774,1.32,1.417,0.562,2.1,1.481,179.0,533.0
2015-04-30,Dushanbe,Tajikistan,68.787,38.5598,[68.287 38.0598 69.287 39.0598],1.19,0.697,1.883,1.381,1.452,0.69,2.14,1.519,171.0,535.0
2015-05-01,Dushanbe,Tajikistan,68.787,38.5598,[68.287 38.0598 69.287 39.0598],1.199,0.697,1.893,1.394,1.411,0.701,2.124,1.504,196.0,575.0
2015-05-02,Dushanbe,Tajikistan,68.787,38.5598,[68.287 38.0598 69.287 39.0598],1.171,0.623,1.883,1.356,1.442,0.729,2.134,1.52,188.0,578.0
2015-05-03,Dushanbe,Tajikistan,68.787,38.5598,[68.287 38.0598 69.287 39.0598],1.199,0.7,2.022,1.479,1.563,0.804,2.291,1.614,189.0,575.0
2015-05-04,Dushanbe,Tajikistan,68.787,38.5598,[68.287 38.0598 69.287 39.0598],1.238,0.73,2.064,1.505,1.571,0.819,2.295,1.623,184.0,578.0
2015-05-05,Dushanbe,Tajikistan,68.787,38.5598,[68.287 38.0598 69.287 39.0598],1.222,0.698,2.022,1.488,1.609,0.839,2.301,1.654,188.0,566.0
2015-05-06,Dushanbe,Tajikistan,68.787,38.5598,[68.287 38.0598 69.287 39.0598],1.199,0.606,1.887,1.414,1.631,0.871,2.335,1.675,153.0,570.0
2015-05-07,Dushanbe,Tajikistan,68.787,38.5598,[68.287 38.0598 69.287 39.0598],1.301,0.66,2.066,1.485,1.652,0.847,2.312,1.698,181.0,566.0
2015-05-08,Dushanbe,Tajikistan,68.787,38.5598,[68.287 38.0598 69.287 39.0598],1.301,0.646,2.022,1.466,1.667,0.884,2.403,1.735,203.0,562.0
2015-05-09,Dushanbe,Tajikistan,68.787,38.5598,[68.287 38.0598 69.287 39.0598],1.301,0.697,2.063,1.481,1.737,1.0,2.487,1.804,195.0,574.0
2015-05-10,Dushanbe,Tajikistan,68.787,38.5598,[68.287 38.0598 69.287 39.0598],1.301,0.646,2.022,1.476,1.77,0.935,2.492,1.822,183.0,574.0
2015-05-11,Dushanbe,Tajikistan,68.787,38.5598,[68.287 38.0598 69.287 39.0598],1.408,0.77,2.211,1.617,1.777,0.958,2.506,1.831,180.0,581.0
2015-05-12,Dushanbe,Tajikistan,68.787,38.5598,[68.287 38.0598 69.287 39.0598],1.362,0.77,2.211,1.596,1.766,0.989,2.507,1.82,189.0,565.0
2015-05-13,Dushanbe,Tajikistan,68.787,38.5598,[68.287 38.0598 69.287 39.0598],1.591,0.816,2.517,1.754,1.824,0.979,2.582,1.862,161.0,572.0
2015-05-14,Dushanbe,Tajikistan,68.787,38.5598,[68.287 38.0598 69.287 39.0598],1.591,0.77,2.517,1.735,1.797,0.994,2.626,1.866,172.0,562.0
2015-05-15,Dushanbe,Tajikistan,68.787,38.5598,[68.287 38.0598 69.287 39.0598],1.633,0.77,2.384,1.752,1.805,0.995,2.603,1.859,153.0,564.0
2015-05-16,Dushanbe,Tajikistan,68.787,38.5598,[68.287 38.0598 69.287 39.0598],1.761,0.862,2.384,1.79,1.86,1.045,2.67,1.93,140.0,566.0
2015-05-17,Dushanbe,Tajikistan,68.787,38.5598,[68.287 38.0598 69.287 39.0598],1.779,0.862,2.384,1.826,1.861,0.956,2.642,1.891,135.0,569.0
2015-05-18,Dushanbe,Tajikistan,68.787,38.5598,[68.287 38.0598 69.287 39.0598],1.761,0.862,2.336,1.717,1.748,0.884,2.529,1.829,123.0,572.0
2015-05-19,Dushanbe,Tajikistan,68.787,38.5598,[68.287 38.0598 69.287 39.0598],1.779,0.862,2.373,1.714,1.798,0.921,2.553,1.861,145.0,565.0
2015-05-20,Dushanbe,Tajikistan,68.787,38.5598,[68.287 38.0598 69.287 39.0598],1.779,0.864,2.373,1.723,1.699,0.877,2.473,1.778,153.0,569.0
2015-05-21,Dushanbe,Tajikistan,68.787,38.5598,[68.287 38.0598 69.287 39.0598],1.77,0.862,2.39,1.731,1.701,0.846,2.473,1.781,167.0,560.0
2015-05-22,Dushanbe,Tajikistan,68.787,38.5598,[68.287 38.0598 69.287 39.0598],1.681,0.816,2.42,1.74,1.698,0.905,2.51,1.795,136.0,565.0
2015-05-23,Dushanbe,Tajikistan,68.787,38.5598,[68.287 38.0598 69.287 39.0598],1.77,0.816,2.439,1.784,1.684,0.889,2.45,1.772,115.0,565.0
2015-05-24,Dushanbe,Tajikistan,68.787,38.5598,[68.287 38.0598 69.287 39.0598],1.682,0.661,2.408,1.73,1.685,0.892,2.444,1.776,134.0,564.0
2015-05-25,Dushanbe,Tajikistan,68.787,38.5598,[68.287 38.0598 69.287 39.0598],1.974,1.109,2.39,1.85,1.714,0.943,2.48,1.784,154.0,574.0
2015-05-26,Dushanbe,Tajikistan,68.787,38.5598,[68.287 38.0598 69.287 39.0598],1.874,1.011,2.385,1.753,1.646,0.901,2.418,1.72,164.0,574.0
2015-05-27,Dushanbe,Tajikistan,68.787,38.5598,[68.287 38.0598 69.287 39.0598],1.977,1.275,2.408,1.853,1.686,0.982,2.4,1.732,169.0,580.0
2015-05-28,Dushanbe,Tajikistan,68.787,38.5598,[68.287 38.0598 69.287 39.0598],1.977,1.109,2.385,1.805,1.668,0.936,2.379,1.713,188.0,567.0
2015-05-29,Dushanbe,Tajikistan,68.787,38.5598,[68.287 38.0598 69.287 39.0598],1.977,1.258,2.385,1.829,1.678,0.972,2.364,1.711,177.0,576.0
2015-05-30,Dushanbe,Tajikistan,68.787,38.5598,[68.287 38.0598 69.287 39.0598],1.977,1.129,2.381,1.786,1.728,0.996,2.409,1.738,206.0,565.0
2015-05-31,Dushanbe,Tajikistan,68.787,38.5598,[68.287 38.0598 69.287 39.0598],1.928,0.901,2.381,1.772,1.718,0.967,2.411,1.737,194.0,566.0
2015-06-01,Dushanbe,Tajikistan,68.787,38.5598,[68.287 38.0598 69.287 39.0598],1.922,0.957,2.299,1.745,1.781,1.016,2.418,1.769,198.0,570.0
2015-06-02,Dushanbe,Tajikistan,68.787,38.5598,[68.287 38.0598 69.287 39.0598],1.922,1.029,2.299,1.752,1.776,1.059,2.418,1.769,226.0,575.0
2015-06-03,Dushanbe,Tajikistan,68.787,38.5598,[68.287 38.0598 69.287 39.0598],1.981,1.065,2.385,1.839,1.791,1.064,2.423,1.769,230.0,577.0
2015-06-04,Dushanbe,Tajikistan,68.787,38.5598,[68.287 38.0598 69.287 39.0598],1.981,1.172,2.385,1.856,1.897,1.193,2.471,1.869,243.0,573.0
2015-06-05,Dushanbe,Tajikistan,68.787,38.5598,[68.287 38.0598 69.287 39.0598],1.971,1.258,2.367,1.862,1.95,1.258,2.506,1.892,240.0,591.0
2015-06-06,Dushanbe,Tajikistan,68.787,38.5598,[68.287 38.0598 69.287 39.0598],1.874,1.182,2.344,1.813,1.912,1.237,2.481,1.871,261.0,580.0
2015-06-07,Dushanbe,Tajikistan,68.787,38.5598,[68.287 38.0598 69.287 39.0598],1.874,1.281,2.353,1.824,1.946,1.28,2.468,1.877,258.0,583.0
2015-06-08,Dushanbe,Tajikistan,68.787,38.5598,[68.287 38.0598 69.287 39.0598],2.046,1.375,2.556,1.984,1.979,1.293,2.514,1.915,262.0,578.0
2015-06-09,Dushanbe,Tajikistan,68.787,38.5598,[68.287 38.0598 69.287 39.0598],1.971,1.301,2.574,1.937,1.99,1.29,2.634,1.96,265.0,579.0
2015-06-10,Dushanbe,Tajikistan,68.787,38.5598,[68.287 38.0598 69.287 39.0598],1.922,1.171,2.563,1.908,2.064,1.323,2.732,2.041,264.0,591.0
2015-06-11,Dushanbe,Tajikistan,68.787,38.5598,[68.287 38.0598 69.287 39.0598],1.814,1.084,2.381,1.829,2.009,1.287,2.663,2.003,278.0,595.0
2015-06-12,Dushanbe,Tajikistan,68.787,38.5598,[68.287 38.0598 69.287 39.0598],1.832,1.084,2.556,1.877,2.049,1.298,2.767,2.053,272.0,600.0
2015-06-13,Dushanbe,Tajikistan,68.787,38.5598,[68.287 38.0598 69.287 39.0598],1.852,1.084,2.563,1.873,2.065,1.322,2.788,2.059,285.0,585.0
2015-06-14,Dushanbe,Tajikistan,68.787,38.5598,[68.287 38.0598 69.287 39.0598],1.852,1.171,2.595,1.917,2.042,1.336,2.791,2.053,256.0,593.0
2015-06-15,Dushanbe,Tajikistan,68.787,38.5598,[68.287 38.0598 69.287 39.0598],1.852,1.178,2.595,1.918,2.052,1.343,2.786,2.054,274.0,583.0
2015-06-16,Dushanbe,Tajikistan,68.787,38.5598,[68.287 38.0598 69.287 39.0598],1.839,1.178,2.713,1.948,2.055,1.382,2.775,2.066,257.0,584.0
2015-06-17,Dushanbe,Tajikistan,68.787,38.5598,[68.287 38.0598 69.287 39.0598],1.88,1.281,2.76,1.996,2.069,1.436,2.816,2.09,238.0,587.0
2015-06-18,Dushanbe,Tajikistan,68.787,38.5598,[68.287 38.0598 69.287 39.0598],1.865,1.225,2.592,1.936,2.083,1.47,2.782,2.107,214.0,592.0
2015-06-19,Dushanbe,Tajikistan,68.787,38.5598,[68.287 38.0598 69.287 39.0598],1.865,1.178,2.626,1.942,2.106,1.459,2.765,2.1,189.0,593.0
2015-06-20,Dushanbe,Tajikistan,68.787,38.5598,[68.287 38.0598 69.287 39.0598],1.88,1.178,2.653,1.958,2.05,1.404,2.748,2.059,183.0,572.0
2015-06-21,Dushanbe,Tajikistan,68.787,38.5598,[68.287 38.0598 69.287 39.0598],2.086,1.215,2.803,2.054,2.101,1.427,2.783,2.095,171.0,573.0